Location: Camp at the Woods
(43.2055°N, 93.0905°W)
Time: 10:29:57
(UTC+00:00)

BlueWalker 3 - Pass Details

Date: 15 April 2024
Orbit: 482 x 494 km, 53.2° (Epoch: 22 May)

Event Time Altitude Azimuth Distance (km) Brightness Sun altitude
Exits shadow 09:29:28 19° 314° (NW) 1,242 3.8 -20.4°
Maximum altitude 09:32:06 66° 33° (NNE) 546 2.2 -20.1°
Drops below altitude 10° 09:35:54 10° 117° (ESE) 1,691 4.9 -19.5°
Sets 09:38:05 0° 120° (ESE) 2,568 5.9 -19.2°
